Regional Weather Roundup
Issued by NWS

Home | Current Version | Previous Version | Text Only | Print | Product List | Glossary On
Versions: 1 2 3 4 5 6 7 8 9 10 11 12 13 14 15 16 17 18 19 20 21 22 23 24 25 26 27 28 29 30 31 32 33 34 35 36 37 38 39 40 41 42 43 44 45 46 47 48 49 50
000
ASUS43 KMKX 211259
RWRWI

WISCONSIN REGIONAL WEATHER ROUNDUP
NATIONAL WEATHER SERVICE MILWAUKEE/SULLIVAN WI
700 AM CST SUN JAN 21 2018

NOTE: "FAIR" INDICATES FEW OR NO CLOUDS BELOW 12,000 FEET WITH NO
SIGNIFICANT WEATHER AND/OR OBSTRUCTIONS TO VISIBILITY.

WIZ001-002-006>008-014>016-023>028-211400-
NORTHWEST WISCONSIN

CITY           SKY/WX    TMP DP  RH WIND       PRES   REMARKS
SUPERIOR ARPT  FAIR      23  23  99 SW3       29.99R
ASHLAND        FAIR      25  23  92 CALM      29.98R FOG
HAYWARD        CLOUDY    27  24  89 CALM      29.96R FOG
SIREN          CLOUDY    29  28  96 CALM      29.98R
CUMBERLAND     CLOUDY    32  28  86 CALM      29.95S
RICE LAKE      CLOUDY    30  29  95 CALM      29.97R
CHETEK         NOT AVBL
LADYSMITH      CLOUDY    31  30  96 CALM      29.96R FOG
EAU CLAIRE     CLOUDY    29  27  92 CALM      29.94S FOG
MENOMONIE      MOCLDY    30  29  96 CALM      29.95R FOG
NEW RICHMOND   FAIR      30  29  97 CALM      29.96R FOG
OSCEOLA        CLOUDY    32  32 100 CALM      29.99S
$$

WIZ003>005-009-010-017-018-211400-
NORTH CENTRAL WISCONSIN

CITY           SKY/WX    TMP DP  RH WIND       PRES   REMARKS
MANITOWISH WTR CLOUDY    24  24 100 CALM      29.93R
ARBOR VITAE    CLOUDY    29  28  96 CALM      29.92S FOG
WOODRUFF       CLOUDY    29  28  96 CALM      29.92S FOG
RHINELANDER    CLOUDY    31  30  96 CALM      29.94R
EAGLE RIVER    FAIR      27  27 100 CALM      29.92S FOG
LAND O LAKES   CLOUDY    26  25  98 CALM      29.94R
PHILLIPS       CLOUDY    28  28 100 CALM      29.93R
TOMAHAWK       MOCLDY    30  28  94 CALM      29.94R FOG
MEDFORD        CLOUDY    29  28  96 E3        29.91F FOG
MERRILL        CLOUDY    28  28 100 CALM      29.94S FOG
$$

WIZ029-030-035-036-043>047-211400-
CENTRAL WISCONSIN

CITY           SKY/WX    TMP DP  RH WIND       PRES   REMARKS
WAUSAU         CLOUDY    30  29  96 NW5       29.92R WCI  25
MOSINEE        MOCLDY    28  27  93 VRB3      29.94R FOG
MARSHFIELD     FAIR      24  23  96 S7        29.92R FOG     WCI  16
STEVENS POINT  FOG       22  22 100 CALM      29.95S VSB 3/4
WAUPACA        FAIR      24  22  91 CALM      29.96S FOG
WAUTOMA        FAIR      20  18  92 CALM      29.95F
WISC RAPIDS    FAIR      21  18  88 CALM      29.95S FOG
CAMP DOUGLAS   FAIR      21  21  99 CALM      29.93S FOG
$$

WIZ011>013-019>022-031-037>040-048>050-211400-
NORTHEAST WISCONSIN

CITY           SKY/WX    TMP DP  RH WIND       PRES   REMARKS
ANTIGO         CLOUDY    28  27  97 CALM      29.93S
SHAWANO        FAIR      29  28  93 CALM      29.95S FOG
OCONTO         CLOUDY    27  26  96 CALM      29.96R
STURGEON BAY   MOCLDY    29  27  92 S5        29.97  WCI  24
GREEN BAY      FAIR      25  23  92 S5        29.96R FOG     WCI  19
MANITOWOC      FAIR      24  23  96 NW3       29.98S FOG
APPLETON       MOCLDY    27  27 100 CALM      29.95R FOG
CLINTONVILLE   FAIR      27  25  93 CALM      29.95S FOG
OSHKOSH        FOG       24  22  91 CALM      29.95S VSB 1/4
$$

WIZ032>034-041-042-053>061-211400-
SOUTHWEST WISCONSIN

CITY           SKY/WX    TMP DP  RH WIND       PRES   REMARKS
LA CROSSE      FOG       22  20  92 CALM      29.96R VSB<1/4
SPARTA         CLOUDY    19  18  98 CALM      29.95S
VIROQUA        FAIR      29  29 100 S5        29.93R WCI  24
BOSCOBEL       CLOUDY    24  22  91 CALM      29.97R FOG
PRAIRIE DU CHI CLOUDY    28  27  94 CALM      29.96R FOG
PLATTEVILLE    MOCLDY    34  34 100 E6        29.94S WCI  29
$$

WIZ056-057-062-063-064-067-068-211400-
SOUTH CENTRAL WISCONSIN

CITY           SKY/WX    TMP DP  RH WIND       PRES   REMARKS
REEDSBURG      FAIR      23  23 100 CALM      29.94S
BARABOO/DELLS    N/A     25  24  98 S3        29.94S FOG
LONE ROCK      NOT AVBL
MINERAL POINT    N/A     36  36 100 NE3       29.93S FOG
MADISON        CLOUDY    30  30 100 CALM      29.96S FOG
MIDDLETON      CLOUDY    32  32 100 CALM      29.95S
WATERTOWN      FOG       28  28 100 CALM      29.96S VSB 1/4
MONROE         FOG       32  32 100 CALM      29.94R VSB 1/2
JANESVILLE     CLOUDY    34  34 100 CALM      29.95R FOG
$$

WIZ051-052-058>065-066-070>072-211400-
SOUTHEAST WISCONSIN

CITY           SKY/WX    TMP DP  RH WIND       PRES   REMARKS
MILWAUKEE      CLOUDY    33  32  96 CALM      29.97R FOG
WAUKESHA       CLOUDY    32  32 100 CALM      29.97S FOG
MILWAUKEE/TIMM CLOUDY    32  30  93 CALM      29.98S FOG
RACINE         CLOUDY    38  36  92 CALM      29.98S FOG
BURLINGTON     CLOUDY    34  32  93 CALM      29.96R FOG
KENOSHA        CLOUDY    38  35  89 S6        29.97R FOG     WCI  33
FOND DU LAC    FOG       24  21  88 CALM      29.96R VSB 1/4
SHEBOYGAN      FAIR      22  22 100 SW3       29.96S FOG
WEST BEND      FOG       28  28 100 CALM      29.96S VSB 1/4
JUNEAU         FOG       28  28  99 CALM      29.97R VSB<1/4
$$

LSZ147-162-211400-
LAKE SUPERIOR

STATION/POSITION TIME  TEMP    WIND        PRES    WAVE
                       AIR SEA DIR/SP/G            HT/PER
                 (UTC) (F)     (DEG/KT/KT) (MB)    (FT/S)
DEVILS ISLAND    1200   30      30/  4/  5 1015.8R
SAXON HARBOR     1230   27     200/  1/  3 1014.9R
$$

LMZ867-665-643>646-211400-
LAKE MICHIGAN

STATION/POSITION TIME  TEMP    WIND        PRES    WAVE
                       AIR SEA DIR/SP/G            HT/PER
                 (UTC) (F)     (DEG/KT/KT) (MB)    (FT/S)
NORTHPORT PIER   1240   35     180/  2/  5 1014.6R
KEWAUNEE LAKESHO 1230   26     300/  2/  2 1014.2R
SHEBOYGAN LAKESH 1200   32     250/  3/  4 1015.1F
PORT WASHINGTON  1240   32     250/  4/  4 1015.9S
MILWAUKEE LAKESH 1230   35      20/  3/  3   N/A
KENOSHA   LAKESH 1200   36     190/  5/  6 1014.9
$$

TC  - TEMPERATURE IN CELSIUS
VSB - VISIBILITY IN STATUTE MILES
WCI - WIND CHILL INDEX
HX  - HEAT INDEX




USA.gov is the U.S. government's official web portal to all federal, state and local government web resources and services.